Regional Weather Roundup
Issued by NWS

Home | Current Version | Previous Version | Graphics & Text | Print | Product List | Glossary On
Versions: 1 2 3 4 5 6 7 8 9 10 11 12 13 14 15 16 17 18 19 20 21 22 23 24 25 26 27 28 29 30 31 32 33 34 35 36 37 38 39 40 41 42 43 44 45 46 47 48 49 50
000
ASUS43 KLOT 021512
RWRIL

ILLINOIS REGIONAL WEATHER ROUNDUP
NATIONAL WEATHER SERVICE CHICAGO/ROMEOVILLE IL
1000 AM CDT SUN AUG 02 2015

NOTE: "FAIR" INDICATES FEW OR NO CLOUDS BELOW 12,000 FEET WITH NO
SIGNIFICANT WEATHER AND/OR OBSTRUCTIONS TO VISIBILITY.

* THESE STATIONS ARE NOT UNDER NWS QUALITY CONTROL. THEY ALSO MAY NOT
  REPORT WEATHER SUCH AS PRECIPITATION OR FOG.

ILZ001-002-007-009-015-016-024-021600-
NORTHWEST ILLINOIS

CITY           SKY/WX    TMP DP  RH WIND       PRES   REMARKS
MOLINE         LGT RAIN  80  65  59 SW13      29.84F HX  82
STERLING*      MOSUNNY   82  66  57 W10G17    29.81F HX  85
SAVANNA*       MOSUNNY   80  65  59 SW10G17   29.81F HX  82
$$

ILZ003-004-008-010-011-017-018-021600-
NORTH CENTRAL ILLINOIS

CITY           SKY/WX    TMP DP  RH WIND       PRES   REMARKS
ROCKFORD       MOSUNNY   82  65  56 SW15G23   29.83F HX  84
FREEPORT*      MOSUNNY   78  67  69 SW13G21   29.83F HX  81
ROCHELLE*      MOSUNNY   80  65  60 SW14G20   29.85F HX  81
DE KALB*       SUNNY     81  68  64 SW16G22   29.85F HX  83
PERU*          SUNNY     81  62  52 SW15      29.87F HX  82
$$

ILZ005-006-012>014-019>023-021600-
NORTHEAST ILLINOIS

CITY           SKY/WX    TMP DP  RH WIND       PRES   REMARKS
CHICAGO-OHARE  MOSUNNY   82  60  47 SW21G29   29.82F HX  82
CHICAGO-MIDWAY MOSUNNY   85  63  47 W17G26    29.83F HX  86
AURORA         SUNNY     80  63  55 SW16G24   29.85F HX  81
LANSING*       SUNNY     82  69  65 SW13G20   29.87F HX  85
JOLIET*        SUNNY     84  67  56 SW14      29.86F HX  86
WAUKEGAN       SUNNY     82  69  64 SW13G24   29.79F HX  85
DUPAGE AIRPORT SUNNY     81  63  54 SW16G25   29.84F HX  82
KANKAKEE*      SUNNY     82  72  72 SW12G17   29.89F HX  87
WHEELING       SUNNY     84  60  44 SW17G24   29.82F HX  84
MORRIS*        SUNNY     81  66  61 SW16      29.86S HX  83
ROMEOVILLE*    SUNNY     81  64  55 SW20G29   29.86F HX  82
NORTHERLY ISL    N/A     82  61  48 W13         N/A  HX  83
$$

LMZ740>746-021600-
SOUTHERN LAKE MICHIGAN

STATION/POSITION SKY/WX   TEMP    WIND        PRES    VSBY  WAVE
                          AIR SEA DIR/SP/G                  HT/PER
                          (F)     (DEG/KT/KT) (MB)    (MI)  (FT/S)
HARRISON CRIB              78     230/ 19/ 24   N/A
BURNHAM HARBOR             83     200/  9/ 19   N/A
CALUMET HARBOR             79     220/  8/ 15   N/A
BURNS HARBOR               78     210/ 17/ 22 1011.9F
MICHIGAN CITY              76     180/ 13/ 15   N/A
MICHIGAN CITY 6N           77 74  230/ 12/ 16   N/A           2/ 3
ST. JOSEPH                 76 73  230/ 14/ 16   N/A           2/ 4
$$

ILZ025>027-034>036-040-047-049-050-058-095>099-021600-
WEST-CENTRAL ILLINOIS

CITY           SKY/WX    TMP DP  RH WIND       PRES   REMARKS
QUINCY         MOSUNNY   81  70  69 SW9       29.92F HX  84
GALESBURG*     MOSUNNY   78  67  68 S12       29.89S HX  81
MACOMB*        PTSUNNY   79  67  67 SW10      29.92S HX  81
JACKSONVILLE*  PTSUNNY   79  71  77 SW7       29.93S HX  82
PITTSFIELD*    MOSUNNY   83  69  63 SW7       29.94F HX  86
$$

ILZ028>032-037-038-041>044-048-051>054-059>061-021600-
CENTRAL ILLINOIS

CITY           SKY/WX    TMP DP  RH WIND       PRES   REMARKS
PONTIAC        SUNNY     82  75  80 SW12      29.90S HX  88
BLOOMINGTON    SUNNY     81  73  76 SW14      29.93F HX  86
DECATUR        SUNNY     84  70  62 SW12      29.94F HX  88
PEORIA         SUNNY     84  69  60 SW10      29.90F HX  88
LACON*         SUNNY     80  66  62 SW8       29.87F HX  82
LINCOLN*       SUNNY     85  69  60 SW7       29.92S HX  88
SPRINGFIELD    MOSUNNY   83  71  67 SW14G21   29.93S HX  87
TAYLORVILLE    PTSUNNY   81  72  74 SW6       29.95S HX  84
$$

ILZ033-039-045-046-055>057-062-063-021600-
EAST-CENTRAL ILLINOIS

CITY           SKY/WX    TMP DP  RH WIND       PRES   REMARKS
CHAMPAIGN      SUNNY     81  70  69 SW10      29.94F HX  84
DANVILLE*      SUNNY     79  71  76 SW12G17   29.91F HX  83
RANTOUL*       SUNNY     83  72  68 SW13      29.93S HX  88
MATTOON        SUNNY     81  68  64 SW9       29.95F HX  84
PARIS*         SUNNY     81  71  70 SW10      29.96F HX  85
$$

ILZ079-100>102-021600-
SOUTHWEST ILLINOIS

CITY           SKY/WX    TMP DP  RH WIND       PRES   REMARKS
ALTON          MOSUNNY   82  70  65 SW9       29.96S HX  86
BELLEVILLE     SUNNY     84  74  70 SW7       29.95F HX  91
CAHOKIA*       SUNNY     85  69  58 VRB6      29.95F HX  89
SPARTA*        SUNNY     82  72  71 S7        29.98S HX  87
$$

ILZ064>066-069>071-074>076-080>082-084>086-088>090-092>094-021600-
SOUTH-CENTRAL ILLINOIS

CITY           SKY/WX    TMP DP  RH WIND       PRES   REMARKS
CARBONDALE     SUNNY     82  68  62 S9        29.98F HX  85
CAIRO*         SUNNY     81  70  69 S5        30.00S HX  84
EFFINGHAM*     SUNNY     83  66  57 S8        29.98S HX  85
MARION         MOSUNNY   82  68  61 SW12      30.00S HX  85
MT. VERNON     SUNNY     84  68  58 S12       29.99S HX  87
CENTRALIA*     SUNNY     84  68  59 SW9       29.97S HX  87
SALEM*         SUNNY     84  69  60 SW8       29.97F HX  88
METROPOLIS*    SUNNY     81  68  65 S5        30.01S HX  83
$$

ILZ067-068-072-073-078-083-087-091-021600-
SOUTHEAST ILLINOIS

CITY           SKY/WX    TMP DP  RH WIND       PRES   REMARKS
LAWRENCEVILLE  SUNNY     82  65  56 S9        29.98F HX  84
FLORA*         SUNNY     83  68  60 SW6       29.97F HX  86
FAIRFIELD*     SUNNY     82  68  63 S6        29.97S HX  84
HARRISBURG*    SUNNY     80  66  60 S6        30.01S HX  82
ROBINSON*      SUNNY     81  66  61 SW7       29.98F HX  83
CARMI*         SUNNY     80  64  58 S3        29.98F HX  81
$$

ABBREVIATIONS USED IN REMARKS
   TC - TEMPERATURE IN CELSIUS
  WCI - WIND CHILL INDEX
   HX - HEAT INDEX
  VSB - VISIBILITY
$$




USA.gov is the U.S. government's official web portal to all federal, state and local government web resources and services.